This is the latest recevied weather packets stored in our database for station/object W0WC. If no packets are shown the sender has not sent any weather packets the latest 10 day(s).
| Time | Temp. | Humidity | Pressure | Rain* | Wind** | Luminosity | Snow |
|---|---|---|---|---|---|---|---|
| 1788237668 | 30° C | 45% | 1017 hPa | 0 mm | - | 0 W/m² | - |
| 1788237345 | 30° C | 45% | 1016.8 hPa | 0 mm | - | 0 W/m² | - |
| 1788237040 | 30° C | 45% | 1016.9 hPa | 0 mm | - | 0 W/m² | - |
| 1788236740 | 30.56° C | 44% | 1016.8 hPa | 0 mm | - | 0 W/m² | - |
| 1788236435 | 30.56° C | 44% | 1016.7 hPa | 0 mm | - | 0 W/m² | - |
| 1788236131 | 30.56° C | 44% | 1016.7 hPa | 0 mm | - | 0 W/m² | - |
| 1788235825 | 30° C | 44% | 1016.9 hPa | 0 mm | - | 0 W/m² | - |
| 1788235520 | 30° C | 44% | 1016.8 hPa | 0 mm | - | 0 W/m² | - |
| 1788235219 | 30° C | 45% | 1016.9 hPa | 0 mm | - | 0 W/m² | - |
| 1788234917 | 29.44° C | 46% | 1016.8 hPa | 0 mm | - | 0 W/m² | - |
| 1788234616 | 29.44° C | 47% | 1016.8 hPa | 0 mm | - | 0 W/m² | - |
| 1788234316 | 29.44° C | 47% | 1016.5 hPa | 0 mm | - | 0 W/m² | - |
| 1788234011 | 28.89° C | 48% | 1016.6 hPa | 0 mm | - | 0 W/m² | - |
| 1788233710 | 28.33° C | 51% | 1016.7 hPa | 0 mm | - | 0 W/m² | - |
| 1788233410 | 28.33° C | 51% | 1016.7 hPa | 0 mm | - | 0 W/m² | - |
| 1788233104 | 28.33° C | 51% | 1016.5 hPa | 0 mm | - | 0 W/m² | - |
| 1788232798 | 28.33° C | 51% | 1016.4 hPa | 0 mm | - | 0 W/m² | - |
| 1788232494 | 28.33° C | 51% | 1016.4 hPa | 0 mm | - | 0 W/m² | - |
| 1788232194 | 28.33° C | 50% | 1016.3 hPa | 0 mm | - | 0 W/m² | - |
| 1788231889 | 28.89° C | 49% | 1016.3 hPa | 0 mm | - | 0 W/m² | - |
| 1788231588 | 28.89° C | 49% | 1016.6 hPa | 0 mm | - | 0 W/m² | - |
| 1788231283 | 28.89° C | 48% | 1016.2 hPa | 0 mm | - | 0 W/m² | - |
| 1788230982 | 28.89° C | 48% | 1016.2 hPa | 0 mm | - | 0 W/m² | - |
| 1788230678 | 29.44° C | 48% | 1016.5 hPa | 0 mm | - | 0 W/m² | - |
| 1788230376 | 29.44° C | 48% | 1016.3 hPa | 0 mm | - | 0 W/m² | - |
* Rain latest hour (hover to see other rain measurements)
** Current wind speed in m/s (hover to see current wind gust speed)